This is the latest recevied weather packets stored in our database for station/object KE0LFX. If no packets are shown the sender has not sent any weather packets the latest 10 day(s).
| Time | Temp. | Humidity | Pressure | Rain* | Wind** | Luminosity | Snow |
|---|---|---|---|---|---|---|---|
| 1777393204 | 12.78° C | 68% | 1021 hPa | 0 mm | - | 180 W/m² | - |
| 1777392901 | 12.22° C | 70% | 1021 hPa | 0 mm | - | 118 W/m² | - |
| 1777392596 | 12.22° C | 69% | 1021 hPa | 0 mm | - | 99 W/m² | - |
| 1777392293 | 12.22° C | 69% | 1021.2 hPa | 0 mm | - | 241 W/m² | - |
| 1777391992 | 11.11° C | 74% | 1020.5 hPa | 0 mm | - | 188 W/m² | - |
| 1777391693 | 11.11° C | 75% | 1020.9 hPa | 0 mm | - | 173 W/m² | - |
| 1777391389 | 11.11° C | 75% | 1020.8 hPa | 0 mm | - | 178 W/m² | - |
| 1777391086 | 10.56° C | 77% | 1020.5 hPa | 0 mm | - | 94 W/m² | - |
| 1777390782 | 10.56° C | 77% | 1020.4 hPa | 0 mm | - | 98 W/m² | - |
| 1777390479 | 10° C | 77% | 1019.1 hPa | 0 mm | - | 141 W/m² | - |
| 1777390175 | 10° C | 78% | 1019.2 hPa | 0 mm | - | 195 W/m² | - |
| 1777389872 | 10° C | 77% | 1019.5 hPa | 0 mm | - | 209 W/m² | - |
| 1777389569 | 10° C | 78% | 1019.3 hPa | 0 mm | - | 210 W/m² | - |
| 1777389265 | 10° C | 78% | 1019.2 hPa | 0 mm | - | 206 W/m² | - |
| 1777388964 | 10° C | 78% | 1019 hPa | 0 mm | - | 209 W/m² | - |
| 1777388660 | 9.44° C | 80% | 1019 hPa | 0 mm | - | 242 W/m² | - |
| 1777388357 | 9.44° C | 80% | 1019 hPa | 0 mm | - | 215 W/m² | - |
| 1777388056 | 9.44° C | 80% | 1018.9 hPa | 0 mm | - | 146 W/m² | - |
| 1777387753 | 10° C | 79% | 1018.7 hPa | 0 mm | - | 160 W/m² | - |
| 1777387449 | 9.44° C | 79% | 1018.9 hPa | 0 mm | - | 154 W/m² | - |
| 1777387144 | 10° C | 79% | 1019 hPa | 0 mm | - | 131 W/m² | - |
| 1777386840 | 8.89° C | 80% | 1019 hPa | 0 mm | - | 108 W/m² | - |
| 1777386537 | 8.89° C | 80% | 1018.8 hPa | 0 mm | - | 176 W/m² | - |
| 1777386234 | 8.89° C | 81% | 1019 hPa | 0 mm | - | 153 W/m² | - |
| 1777385932 | 8.89° C | 80% | 1019.3 hPa | 0 mm | - | 110 W/m² | - |
* Rain latest hour (hover to see other rain measurements)
** Current wind speed in m/s (hover to see current wind gust speed)